K4FB Weather Reports


time (UTC)temp
C
wind
direction
speed
KPH
gust
KPH
rain 1hr
cm
rain 24hr
cm
rain mn
cm
humidity
%
barometer
mb
20260903174520 33 181 0.0 11.3 0.00 2.87 0.00 70 1015.1
20260903174011 33 197 0.0 3.2 0.00 2.87 0.00 71 1015.0
20260903173511 33 203 0.0 8.0 0.00 2.87 0.00 68 1015.1
20260903173018 33 198 1.6 8.0 0.00 2.87 0.00 70 1015.3
20260903172510 33 105 0.0 6.4 0.00 2.87 0.00 70 1015.3
20260903172013 33 103 0.0 4.8 0.00 2.87 0.00 71 1015.4
20260903171513 33 173 0.0 3.2 0.00 2.87 0.00 69 1015.5
20260903171007 33 184 0.0 4.8 0.00 2.87 0.00 68 1015.5
20260903170515 33 112 0.0 4.8 0.00 2.87 0.00 71 1015.5
20260903165504 33 97 0.0 11.3 0.00 2.87 0.00 70 1015.5
20260903165007 33 97 0.0 11.3 0.00 2.87 0.00 73 1015.5
20260903164518 33 195 0.0 3.2 0.00 2.87 0.00 74 1015.7
20260903164007 33 141 0.0 3.2 0.00 2.87 0.00 74 1015.8
20260903163510 33 140 0.0 1.6 0.00 2.87 0.00 75 1015.8
20260903163023 32 75 0.0 3.2 0.00 2.87 0.00 74 1016.0
20260903162511 32 196 0.0 3.2 0.00 2.87 0.00 76 1015.9
20260903162007 32 161 0.0 3.2 0.00 2.87 0.00 77 1016.1
20260903161529 32 83 0.0 3.2 0.00 2.87 0.00 77 1016.2
20260903161011 32 103 0.0 3.2 0.00 2.87 0.00 76 1016.1
20260903160517 31 99 0.0 1.6 0.00 2.87 0.00 77 1016.2
20260903160030 31 122 0.0 1.6 0.00 2.87 0.00 79 1016.4
20260903155512 31 23 0.0 1.6 0.00 2.87 0.00 78 1016.3
20260903155015 31 166 0.0 1.6 0.00 2.87 0.00 80 1016.3
20260903154516 31 180 0.0 0.0 0.00 2.87 0.00 80 1016.4
20260903154010 30 171 0.0 0.0 0.00 2.87 0.00 81 1016.4
20260903153510 30 130 0.0 0.0 0.00 2.87 0.00 81 1016.3
20260903153020 30 111 0.0 0.0 0.00 2.87 0.00 82 1016.3
20260903152510 30 107 0.0 1.6 0.00 2.87 0.00 83 1016.4
20260903152012 30 44 0.0 1.6 0.00 2.87 0.00 83 1016.5
20260903151527 29 146 0.0 0.0 0.00 2.87 0.00 84 1016.5
20260903151006 29 79 0.0 0.0 0.00 2.87 0.00 83 1016.4
20260903150513 29 175 0.0 0.0 0.00 2.87 0.00 84 1016.6
20260903150038 29 178 0.0 0.0 0.00 2.87 0.00 84 1016.6
20260903145517 29 164 0.0 0.0 0.00 2.87 0.00 85 1016.5
20260903145008 29 204 0.0 0.0 0.00 2.87 0.00 87 1016.3
20260903144530 28 133 0.0 0.0 0.00 2.87 0.00 87 1016.3
20260903144015 28 72 0.0 0.0 0.00 2.87 0.00 88 1016.5
20260903143507 28 61 0.0 0.0 0.00 2.87 0.00 88 1016.5
20260903143018 28 84 0.0 0.0 0.00 2.87 0.00 89 1016.4
20260903142507 28 97 0.0 0.0 0.00 2.87 0.00 89 1016.4
20260903142012 28 76 0.0 3.2 0.00 2.87 0.00 89 1016.4
20260903141526 27 68 0.0 3.2 0.00 2.87 0.00 91 1016.4
20260903141010 27 103 0.0 1.6 0.00 2.87 0.00 91 1016.4
20260903140514 27 130 0.0 1.6 0.00 2.87 0.00 91 1016.3
20260903140022 27 171 0.0 1.6 0.00 2.87 0.00 91 1016.4
20260903135511 27 142 0.0 1.6 0.00 2.87 0.00 92 1016.5
20260903135013 27 82 0.0 1.6 0.00 2.87 0.00 92 1016.4
20260903134538 27 92 0.0 1.6 0.00 2.87 0.00 92 1016.4
20260903134011 27 78 0.0 0.0 0.00 2.87 0.00 93 1016.3
20260903133520 26 98 0.0 0.0 0.00 2.87 0.00 93 1016.3
20260903133031 26 55 0.0 0.0 0.00 2.87 0.00 94 1016.1
20260903132519 26 97 0.0 1.6 0.00 2.87 0.00 94 1016.2
20260903132012 26 92 0.0 1.6 0.00 2.87 0.00 94 1016.2
20260903131521 26 120 0.0 1.6 0.00 2.87 0.00 95 1016.1
20260903131012 26 130 0.0 0.0 0.00 2.87 0.00 95 1016.1
20260903130511 26 116 0.0 1.6 0.00 2.87 0.00 95 1016.1
20260903130004 26 96 0.0 1.6 0.00 2.87 0.00 95 1016.0
20260903125504 26 146 0.0 0.0 0.00 2.87 0.00 95 1015.9
20260903125003 26 161 0.0 0.0 0.00 2.87 0.00 95 1015.9
20260903124504 26 161 0.0 0.0 0.00 2.87 0.00 95 1015.9
20260903124003 26 161 0.0 0.0 0.00 2.87 0.00 95 1016.0
20260903123503 26 165 0.0 0.0 0.00 2.87 0.00 95 1016.0
20260903123028 25 165 0.0 0.0 0.00 2.87 0.00 95 1016.0
20260903122504 25 161 0.0 0.0 0.00 2.87 0.00 95 1016.0
20260903122006 25 161 0.0 0.0 0.00 2.87 0.00 95 1015.9
20260903121520 25 154 0.0 0.0 0.00 2.87 0.00 95 1015.9
20260903121010 25 200 0.0 0.0 0.00 2.87 0.00 95 1015.9
20260903120504 25 200 0.0 0.0 0.00 2.87 0.00 95 1015.8
20260903120017 25 200 0.0 0.0 0.00 2.87 0.00 1015.6
20260903115508 25 200 0.0 0.0 0.00 2.87 0.00 1015.4
20260903115003 25 200 0.0 0.0 0.00 2.87 0.00 95 1015.4
20260903114508 25 236 0.0 0.0 0.00 2.87 0.00 95 1015.3
20260903114004 25 266 0.0 0.0 0.00 2.87 0.00 95 1015.2
20260903113502 25 360 0.0 0.0 0.00 2.87 0.00 95 1015.1
20260903113020 25 360 0.0 0.0 0.00 2.87 0.00 95 1015.0
20260903112504 25 360 0.0 0.0 0.00 2.87 0.00 95 1015.0
20260903112005 25 360 0.0 0.0 0.00 2.87 0.00 95 1014.9
20260903111509 25 360 0.0 0.0 0.00 2.87 0.00 95 1014.9
20260903111004 25 360 0.0 0.0 0.00 2.87 0.00 95 1014.8
20260903110507 25 360 0.0 0.0 0.00 2.87 0.00 95 1014.8
20260903110028 25 352 0.0 0.0 0.00 2.87 0.00 95 1014.6
20260903105504 25 352 0.0 0.0 0.00 2.87 0.00 95 1014.6
20260903105007 25 352 0.0 0.0 0.00 2.87 0.00 94 1014.4
20260903104530 25 352 0.0 0.0 0.00 2.87 0.00 95 1014.5
20260903104011 25 352 0.0 0.0 0.00 2.87 0.00 95 1014.4
20260903103503 25 352 0.0 0.0 0.00 2.87 0.00 95 1014.4
20260903103008 25 24 0.0 0.0 0.00 2.87 0.00 95 1014.3
20260903102504 25 66 0.0 0.0 0.00 2.87 0.00 95 1014.2
20260903102003 25 62 0.0 0.0 0.00 2.87 0.00 95 1014.1
20260903101516 25 61 0.0 0.0 0.00 2.87 0.00 95 1014.2
20260903101007 25 78 0.0 0.0 0.00 2.87 0.00 95 1014.2
20260903100507 25 68 0.0 0.0 0.00 2.87 0.00 95 1014.2
20260903100023 25 59 0.0 0.0 0.00 2.87 0.00 95 1014.1
20260903095507 25 80 0.0 1.6 0.00 2.87 0.00 95 1014.3
20260903095011 25 63 0.0 1.6 0.00 2.87 0.00 95 1014.3
20260903094508 25 67 0.0 1.6 0.00 2.87 0.00 95 1014.2
20260903094014 25 63 0.0 1.6 0.00 2.87 0.00 95 1014.2
20260903093512 25 105 0.0 1.6 0.00 2.87 0.00 95 1014.2
20260903093048 25 51 0.0 1.6 0.00 2.87 0.00 95 1014.2
20260903092504 25 112 0.0 1.6 0.00 2.87 0.00 95 1014.3
20260903092004 25 40 0.0 0.0 0.00 2.87 0.00 95 1014.3
20260903091509 25 72 0.0 0.0 0.00 2.87 0.00 95 1014.2
20260903091005 25 73 0.0 0.0 0.00 2.87 0.00 94 1014.1
20260903090510 25 88 0.0 0.0 0.00 2.87 0.00 94 1014.1
20260903090026 25 104 0.0 0.0 0.00 2.87 0.00 94 1014.1
20260903085508 25 104 0.0 0.0 0.00 2.87 0.00 94 1014.1
20260903085007 25 97 0.0 0.0 0.00 2.87 0.00 94 1014.1
20260903084529 25 96 0.0 0.0 0.00 2.87 0.00 94 1014.1
20260903084013 25 96 0.0 0.0 0.00 2.87 0.00 94 1014.1
20260903083512 25 103 0.0 0.0 0.00 2.87 0.00 94 1014.0
20260903083019 25 108 0.0 0.0 0.00 2.87 0.00 1014.1
20260903082509 25 89 0.0 0.0 0.00 2.87 0.00 94 1014.1
20260903082017 25 104 0.0 0.0 0.00 2.87 0.00 94 1014.1
20260903081516 25 96 0.0 0.0 0.00 2.87 0.00 94 1014.2
20260903081003 25 67 0.0 0.0 0.00 2.87 0.00 94 1014.3
20260903080504 25 88 0.0 0.0 0.00 2.87 0.00 94 1014.3
20260903080013 25 61 0.0 0.0 0.00 2.87 0.00 94 1014.3
20260903075508 25 77 0.0 0.0 0.00 2.87 0.00 94 1014.3
20260903075005 25 69 0.0 0.0 0.00 2.87 0.00 94 1014.3
20260903074524 25 88 0.0 0.0 0.00 2.87 0.00 94 1014.3
20260903074004 25 88 0.0 0.0 0.00 2.87 0.00 94 1014.3
20260903073508 25 88 0.0 0.0 0.00 2.87 0.00 94 1014.4
20260903073029 25 88 0.0 0.0 0.00 2.87 0.00 94 1014.5
20260903072512 25 88 0.0 0.0 0.00 2.87 0.00 94 1014.5
20260903072007 25 88 0.0 0.0 0.00 2.87 0.00 1014.4
20260903071527 25 88 0.0 0.0 0.00 2.87 0.00 94 1014.5
20260903071015 25 88 0.0 0.0 0.00 2.87 0.00 94 1014.6
20260903070506 25 88 0.0 0.0 0.00 2.87 0.00 94 1014.6
20260903070028 25 88 0.0 0.0 0.00 2.87 0.00 94 1014.7
20260903065504 25 88 0.0 0.0 0.00 2.87 0.00 94 1014.7
20260903065008 25 86 0.0 0.0 0.00 2.87 0.00 94 1014.6
20260903064515 25 85 0.0 0.0 0.00 2.87 0.00 94 1014.7
20260903064008 25 97 0.0 0.0 0.00 2.87 0.00 94 1014.8
20260903063508 25 98 0.0 0.0 0.00 2.87 0.00 94 1014.8
20260903063026 25 98 0.0 0.0 0.00 2.87 0.00 94 1014.7
20260903062512 25 97 0.0 0.0 0.00 2.87 0.00 94 1014.7
20260903062012 25 112 0.0 0.0 0.00 2.87 0.00 94 1014.9
20260903061529 25 101 0.0 1.6 0.00 2.87 0.00 94 1014.9
20260903061011 25 98 0.0 1.6 0.00 2.87 0.00 94 1014.7
20260903060516 25 84 0.0 0.0 0.00 2.87 0.00 94 1014.8
20260903060034 25 53 0.0 0.0 0.00 2.87 0.00 94 1014.9
20260903055518 25 75 0.0 0.0 0.00 2.87 0.00 94 1014.9
20260903055013 25 75 0.0 0.0 0.00 2.87 0.00 1014.9
20260903054523 25 75 0.0 0.0 0.00 2.87 0.00 1015.0
20260903054007 25 77 0.0 0.0 0.00 2.87 0.00 94 1014.9
20260903053506 25 77 0.0 0.0 0.00 2.87 0.00 94 1015.0
20260903053024 25 77 0.0 0.0 0.00 2.87 0.00 94 1015.1
20260903052511 25 77 0.0 0.0 0.00 2.87 0.00 94 1015.2
20260903052014 25 78 0.0 0.0 0.00 2.87 0.00 94 1015.4
20260903051520 25 78 0.0 0.0 0.00 2.87 0.00 94 1015.4
20260903051025 25 86 0.0 0.0 0.00 2.87 0.00 94 1015.3
20260903050519 25 87 0.0 0.0 0.00 2.87 0.00 94 1015.4
20260903050019 25 97 0.0 0.0 0.00 2.87 0.00 94 1015.4
20260903045511 25 97 0.0 0.0 0.00 2.87 0.00 94 1015.5
20260903045014 25 97 0.0 0.0 0.00 2.87 0.00 94 1015.6
20260903044536 25 98 0.0 0.0 0.00 2.87 0.00 94 1015.6
20260903044010 25 99 0.0 0.0 0.00 2.87 0.00 93 1015.6
20260903043514 25 99 0.0 0.0 0.00 2.87 0.00 93 1015.8
20260903043023 25 100 0.0 0.0 0.00 2.87 0.00 93 1015.8
20260903042507 25 100 0.0 0.0 0.00 2.87 0.00 1015.8
20260903042008 25 98 0.0 0.0 0.00 2.87 0.00 93 1015.9
20260903041528 25 98 0.0 0.0 0.00 2.87 0.00 93 1015.9
20260903041012 25 86 0.0 0.0 0.00 2.87 0.00 93 1015.9
20260903040509 25 101 0.0 0.0 0.00 2.87 0.00 93 1015.9
20260903040030 25 104 0.0 0.0 0.00 2.87 0.00 93 1016.0
20260903035512 26 104 0.0 0.0 0.00 2.87 2.87 93 1016.0
20260903035017 26 98 0.0 0.0 0.00 2.87 2.87 93 1016.0
20260903034532 26 100 0.0 1.6 0.00 2.87 2.87 93 1015.9
20260903034015 26 86 0.0 3.2 0.00 2.87 2.87 94 1016.0
20260903033519 26 123 0.0 3.2 0.00 2.87 2.87 1015.8
20260903033031 25 76 0.0 3.2 0.00 2.87 2.87 94 1015.9
20260903032503 25 69 0.0 1.6 0.00 2.87 2.87 94 1015.8
20260903032004 25 63 0.0 0.0 0.00 2.87 2.87 94 1015.9
20260903031520 25 84 0.0 0.0 0.00 2.87 2.87 94 1016.0
20260903031009 25 82 0.0 0.0 0.00 2.87 2.87 94 1015.9
20260903030508 25 38 0.0 0.0 0.00 2.87 2.87 94 1015.9
20260903030007 25 36 0.0 0.0 0.00 2.87 2.87 94 1016.0
20260903025505 25 5 0.0 0.0 0.00 2.87 2.87 94 1016.0
20260903025003 25 5 0.0 0.0 0.00 2.87 2.87 94 1016.2
20260903024509 25 5 0.0 0.0 0.00 2.87 2.87 93 1016.1
20260903024004 25 5 0.0 0.0 0.00 2.87 2.87 93 1016.1
20260903023504 25 5 0.0 0.0 0.00 2.87 2.87 93 1016.1
20260903023006 25 5 0.0 0.0 0.00 2.87 2.87 93 1016.0
20260903022504 25 5 0.0 0.0 0.00 2.87 2.87 93 1016.0
20260903022007 25 5 0.0 0.0 0.00 2.87 2.87 93 1016.1
20260903021508 25 5 0.0 0.0 0.00 2.87 2.87 93 1016.2
20260903021004 25 5 0.0 0.0 0.00 2.87 2.87 93 1016.2
20260903020505 25 5 0.0 0.0 0.00 2.87 2.87 93 1016.1
20260903020028 25 5 0.0 0.0 0.00 2.87 2.87 93 1016.1
20260903015504 25 5 0.0 0.0 0.00 2.87 2.87 93 1016.1
20260903015002 25 33 0.0 0.0 0.00 2.87 2.87 93 1016.0
20260903014506 25 33 0.0 0.0 0.00 2.87 2.87 93 1015.9
20260903014002 25 30 0.0 0.0 0.00 2.87 2.87 93 1015.8
20260903013503 25 30 0.0 1.6 0.00 2.87 2.87 93 1015.6
20260903013010 25 9 0.0 1.6 0.00 2.87 2.87 93 1015.5
20260903012503 25 19 0.0 0.0 0.00 2.87 2.87 93 1015.5
20260903012006 25 10 0.0 0.0 0.00 2.87 2.87 93 1015.5
20260903011514 25 32 0.0 0.0 0.00 2.87 2.87 93 1015.5
20260903011007 25 5 0.0 0.0 0.00 2.87 2.87 93 1015.4
20260903010508 25 28 0.0 0.0 0.00 2.87 2.87 93 1015.3
20260903010010 25 11 0.0 3.2 0.00 2.87 2.87 93 1015.4
20260903005509 25 352 0.0 3.2 0.00 2.87 2.87 92 1015.4
20260903005012 25 340 0.0 1.6 0.00 2.87 2.87 92 1015.3
20260903004513 25 350 0.0 3.2 0.00 2.87 2.87 92 1015.2
20260903004008 25 344 0.0 3.2 0.00 2.87 2.87 92 1015.1
20260903003505 25 9 0.0 3.2 0.00 2.87 2.87 92 1014.9
20260903003010 25 5 0.0 3.2 0.00 2.87 2.87 92 1014.9
20260903002503 25 306 0.0 4.8 0.00 2.87 2.87 92 1014.9
20260903002005 25 327 0.0 4.8 0.03 2.87 2.87 92 1014.9
20260903001520 25 343 0.0 4.8 0.03 2.87 2.87 92 1015.0
20260903001003 25 341 0.0 3.2 0.03 2.87 2.87 1015.2
20260903000507 25 350 0.0 3.2 0.03 2.87 2.87 92 1015.2
20260903000021 25 35 0.0 0.0 0.03 2.87 2.87 92 1015.3
20260902235510 25 262 0.0 0.0 0.03 2.87 2.87 92 1015.3
20260902235002 25 260 0.0 0.0 0.03 2.87 2.87 92 1015.3
20260902234521 25 260 0.0 0.0 0.03 2.87 2.87 92 1015.1
20260902234011 25 260 0.0 1.6 0.03 2.87 2.87 92 1014.9
20260902233503 25 260 0.0 1.6 0.05 2.87 2.87 91 1014.9
20260902233012 25 259 0.0 1.6 0.08 2.87 2.87 92 1014.9
20260902232505 25 283 0.0 1.6 0.08 2.87 2.87 91 1015.0
20260902232004 25 265 0.0 1.6 0.05 2.84 2.84 91 1015.0
20260902231516 25 300 0.0 1.6 0.08 2.84 2.84 91 1015.1
20260902231005 25 239 0.0 1.6 0.10 2.84 2.84 91 1015.2
20260902230505 25 236 0.0 3.2 0.13 2.84 2.84 91 1015.1
20260902230013 25 238 0.0 4.8 0.15 2.84 2.84 91 1015.1
20260902225506 25 208 0.0 4.8 0.18 2.84 2.84 91 1015.0
20260902225012 25 188 0.0 1.6 0.20 2.84 2.84 91 1015.1
20260902224522 25 309 0.0 0.0 0.20 2.84 2.84 91 1015.0
20260902224003 25 311 0.0 0.0 0.20 2.84 2.84 90 1015.0
20260902223507 25 311 0.0 0.0 0.20 2.82 2.82 90 1015.0
20260902223030 25 311 0.0 0.0 0.18 2.79 2.79 90 1015.0
20260902222513 25 229 0.0 1.6 0.18 2.79 2.79 90 1015.1
20260902222004 25 229 0.0 3.2 0.23 2.79 2.79 90 1015.1
20260902221524 25 225 0.0 4.8 0.36 2.77 2.77 89 1015.1
20260902221003 25 217 0.0 4.8 0.66 2.74 2.74 90 1015.1
20260902220506 25 226 0.0 1.6 1.24 2.72 2.72 90 1014.8
20260902220015 25 313 0.0 0.0 2.11 2.67 2.67 89 1014.9
20260902215511 25 313 0.0 0.0 2.64 2.64 2.64 89 1014.7
20260902215011 25 319 0.0 1.6 2.64 2.64 2.64 89 1014.5
20260902214521 25 319 0.0 1.6 2.64 2.64 2.64 88 1014.4
20260902214008 25 281 0.0 4.8 2.64 2.64 2.64 88 1014.5
20260902213510 25 287 0.0 8.0 2.62 2.62 2.62 88 1014.8
20260902213010 25 324 0.0 8.0 2.62 2.62 2.62 88 1014.3
20260902212508 25 325 0.0 6.4 2.62 2.62 2.62 86 1014.3
20260902212010 25 319 0.0 12.9 2.57 2.57 2.57 86 1014.3
20260902211530 25 325 1.6 20.9 2.41 2.41 2.41 85 1014.3
20260902211006 25 318 6.4 22.5 2.08 2.08 2.08 84 1014.5
20260902210510 25 71 9.7 29.0 1.47 1.47 1.47 82 1014.8
20260902210012 26 10 14.5 35.4 0.58 0.58 0.58 79 1015.1
20260902205503 27 52 11.3 35.4 0.00 0.00 0.00 76 1014.6
20260902205004 30 350 22.5 35.4 0.00 0.00 0.00 72 1014.4
20260902204517 32 346 17.7 35.4 0.00 0.00 0.00 67 1014.2
20260902204010 33 34 11.3 27.4 0.00 0.00 0.00 63 1014.0
20260902203505 35 26 8.0 16.1 0.00 0.00 0.00 60 1013.8
20260902203020 35 20 4.8 12.9 0.00 0.00 0.00 61 1013.8
20260902202512 35 120 0.0 9.7 0.00 0.00 0.00 61 1013.8
20260902202011 34 13 3.2 11.3 0.00 0.00 0.00 61 1013.8
20260902201515 33 46 0.0 12.9 0.00 0.00 0.00 65 1013.9
20260902201016 33 78 4.8 12.9 0.00 0.00 0.00 66 1013.9
20260902200515 33 71 0.0 8.0 0.00 0.00 0.00 64 1013.9
20260902200018 33 76 0.0 4.8 0.00 0.00 0.00 63 1014.0
20260902195507 33 80 1.6 12.9 0.00 0.00 0.00 63 1014.1
20260902195011 33 5 3.2 17.7 0.00 0.00 0.00 62 1014.2
20260902194515 34 53 6.4 17.7 0.00 0.00 0.00 62 1014.3
20260902194008 34 5 1.6 8.0 0.00 0.00 0.00 62 1014.3
20260902193508 34 342 0.0 8.0 0.00 0.00 0.00 59 1014.3
20260902193023 35 348 3.2 9.7 0.00 0.00 0.00 58 1014.3
20260902192503 35 58 3.2 14.5 0.00 0.00 0.00 60 1014.4
20260902192007 35 49 0.0 14.5 0.00 0.00 0.00 61 1014.5
20260902191529 35 64 3.2 14.5 0.00 0.00 0.00 60 1014.7
20260902191011 35 65 1.6 14.5 0.00 0.00 0.00 60 1014.7
20260902190510 35 5 3.2 11.3 0.00 0.00 0.00 61 1014.8
20260902190027 35 5 1.6 12.9 0.00 0.00 0.00 64 1014.8
20260902185518 35 42 4.8 12.9 0.00 0.00 0.00 65 1014.9
20260902185004 34 64 3.2 12.9 0.00 0.00 0.00 63 1015.0
20260902184529 34 340 3.2 9.7 0.00 0.00 0.00 61 1015.2
20260902184015 35 5 3.2 9.7 0.00 0.00 0.00 63 1015.3
20260902183507 35 345 3.2 9.7 0.00 0.00 0.00 63 1015.3
20260902183019 35 360 1.6 17.7 0.00 0.00 0.00 64 1015.3
20260902182509 35 26 0.0 17.7 0.00 0.00 0.00 64 1015.6
20260902182010 35 344 1.6 16.1 0.00 0.00 0.00 65 1015.6
20260902181524 34 35 0.0 14.5 0.00 0.00 0.00 65 1015.6
20260902181009 34 61 4.8 14.5 0.00 0.00 0.00 65 1015.7
20260902180514 33 50 0.0 17.7 0.00 0.00 0.00 68 1015.8
20260902180027 33 84 6.4 17.7 0.00 0.00 0.00 68 1015.9
20260902175507 33 344 0.0 6.4 0.00 0.00 0.00 66 1015.9
20260902175010 33 53 0.0 9.7 0.00 0.00 0.00 69 1016.0